SCP
0 0 0 0 0 0 0 0 0 0 0 0 0 0 0 0 0 0 0 0 0 0 0 0 0 0 0 0 0 0 0 0 0 0 0 0 0 0 0 0 0 0 0 0 0 0 0 0 0
0 0 0 0 0 0 0 0 0 0 0 0 0 0 0 0 0 0 0 0 0 0 0 0 0 0 0 0 0 0 0 0 0 0 0 0 0 0 0 0 0 0 0 0 0 0 0 0 0
0 0 0 0 0 0 0 0 0 0 0 0 0 0 0 0 0 0 0 0 0 0 0 0 0 0 0 0 0 0 0 0 0 0 0 0 0 0 0 0 0 0 0 0 0 0 0 0 0
0 0 0 0 0 0 0 0 0 0 0 0 0 0 0 0 0 0 0 0 0 0 0 0 0 0 0 0 0 0 0 0 0 0 0 0 0 0 0 0 0 0 0 0 0 0 0 0 0
0 0 0 0 0 0 0 0 0 0 0 0 0 0 0 0 0 0 0 0 0 0 0 0 0 0 0 0 0 0 0 0 0 0 0 0 0 0 0 0 0 0 0 0 0 0 0 0 0
0 0 0 0 0 0 0 0 0 0 0 0 0 0 0 0 0 0 0 0 0 0 0 0 0 0 0 0 0 0 0 0 0 0 0 0 0 0 0 0 0 0 0 0 0 0 0 0 0
0 0 0 0 0 0 0 0 0 0 0 0 0 0 0 0 0 0 0 0 0 0 0 0 0 0 0 0 0 0 0 0 0 0 0 0 0 0 0 0 0 0 0 0 0 0 0 0 0
0 0 0 0 0 0 0 0 0 0 0 0 0 0 0 0 0 0 0 0 0 0 0 0 0 0 0 0 0 0 0 0 0 0 0 0 0 0 0 0 0 0 0 0 0 0 0 0 0
0 0 0 0 0 0 0 0 0 0 0 0 0 0 0 0 0 0 0 0 0 0 0 0 0 0 0 0 0 0 0 0 0 0 0 0 0 0 0 0 0 0 0 0 0 0 0 0 0
0 0 0 0 0 0 0 0 0 0 0 0 0 0 0 0 0 0 0 0 0 0 0 0 0 0 0 0 0 0 0 0 0 0 0 0 0 0 0 0 0 0 0 0 0 0 0 0 0
0 0 0 0 0 0 0 0 0 0 0 0 0 0 0 0 0 0 0 0 0 0 0 0 0 0 0 0 0 0 0 0 0 0 0 0 0 0 0 0 0 0 0 0 0 0 0 0 0
0 0 0 0 0 0 0 0 0 0 0 0 0 0 0 0 0 0 0 0 0 0 0 0 0 0 0 0 0 0 0 0 0 0 0 0 0 0 0 0 0 0 0 0 0 0 0 0 0
0 0 0 0 0 0 0 0 0 0 0 0 0 0 0 0 0 0 0 0 0 0 0 0 0 0 0 0 0 0 0 0 0 0 0 0 0 0 0 0 0 0 0 0 0 0 0 0 0
0 0 0 0 0 0 0 0 0 0 0 0 0 0 0 0 0 0 0 0 0 0 0 0 0 0 0 0 0 0 0 0 0 0 0 0 0 0 0 0 0 0 0 0 0 0 0 0 0
0 0 0 0 0 0 0 0 0 0 0 0 0 0 0 0 0 0 0 0 0 0 0 0 0 0 0 0 0 0 0 0 0 0 0 0 0 0 0 0 0 0 0 0 0 0 0 0 0
0 0 0 0 0 0 0 0 0 0 0 0 0 0 0 0 0 0 0 0 0 0 0 0 0 0 0 0 0 0 0 0 0 0 0 0 0 0 0 0 0 0 0 0 0 0 0 0 0
0 0 0 0 0 0 0 0 0 0 0 0 0 0 0 0 0 0 0 0 0 0 0 0 0 0 0 0 0 0 0 0 0 0 0 0 0 0 0 0 0 0 0 0 0 0 0 0 0
0 0 0 0 0 0 0 0 0 0 0 0 0 0 0 0 0 0 0 0 0 0 0 0 0 0 0 0 0 0 0 0 0 0 0 0 0 0 0 0 0 0 0 0 0 0 0 0 0
0 0 0 0 0 0 0 0 0 0 0 0 0 0 0 0 0 0 0 0 0 0 0 0 0 0 0 0 0 0 0 0 0 0 0 0 0 0 0 0 0 0 0 0 0 0 0 0 0
0 0 0 0 0 0 0 0 0 0 0 0 0 0 0 0 0 0 0 0 0 0 0 0 0 0 0 0 0 0 0 0 0 0 0 0 0 0 0 0 0 0 0 0 0 0 0 0 0
0 0 0 0 0 0 0 0 0 0 0 0 0 0 0 0 0 0 0 0 0 0 0 0 0 0 0 0 0 0 0 0 0 0 0 0 0 0 0 0 0 0 0 0 0 0 0 0 0
0 0 0 0 0 0 0 0 0 0 0 0 0 0 0 0 0 0 0 0 0 0 0 0 0 0 0 0 0 0 0 0 0 0 0 0 0 0 0 0 0 0 0 0 0 0 0 0 0
0 0 0 0 0 0 0 0 0 0 0 0 0 0 0 0 0 0 0 0 0 0 0 0 0 0 0 0 0 0 0 0 0 0 0 0 0 0 0 0 0 0 0 0 0 0 0 0 0
0 0 0 0 0 0 0 0 0 0 0 0 0 0 0 0 0 0 0 0 0 0 0 0 0 0 0 0 0 0 0 0 0 0 0 0 0 0 0 0 0 0 0 0 0 0 0 0 0
0 0 0 0 0 0 0 0 0 0 0 0 0 0 0 0 0 0 0 0 0 0 0 0 0 0 0 0 0 0 0 0 0 0 0 0 0 0 0 0 0 0 0 0 0 0 0 0 0
0 0 0 0 0 0 0 0 0 0 0 0 0 0 0 0 0 0 0 0 0 0 0 0 0 0 0 0 0 0 0 0 0 0 0 0 0 0 0 0 0 0 0 0 0 0 0 0 0
0 0 0 0 0 0 0 0 0 0 0 0 0 0 0 0 0 0 0 0 0 0 0 0 0 0 0 0 0 0 0 0 0 0 0 0 0 0 0 0 0 0 0 0 0 0 0 0 0
0 0 0 0 0 0 0 0 0 0 0 0 0 0 0 0 0 0 0 0 0 0 0 0 0 0 0 0 0 0 0 0 0 0 0 0 0 0 0 0 0 0 0 0 0 0 0 0 0
0 0 0 0 0 0 0 0 0 0 0 0 0 0 0 0 0 0 0 0 0 0 0 0 0 0 0 0 0 0 0 0 0 0 0 0 0 0 0 0 0 0 0 0 0 0 0 0 0
0 0 0 0 0 0 0 0 0 0 0 0 0 0 0 0 0 0 0 0 0 0 0 0 0 0 0 0 0 0 0 0 0 0 0 0 0 0 0 0 0 0 0 0 0 0 0 0 0
Wind_Speed
5 3 4 5 7 6 2 2 5 3 3 1 4 9 8 4 2 3 3 9 11 10 8 8 10 12 13 13 13 13 13 13 13 13 14 15 16 16 17 17 17 17 18 18 18 18 18 18 19
2 3 6 6 7 4 1 2 4 2 4 3 5 7 6 3 2 6 6 9 12 11 8 9 11 12 14 13 13 13 13 13 13 13 14 15 16 16 16 17 17 17 17 17 17 17 17 18 18
2 4 5 5 4 6 5 4 6 3 2 3 4 5 6 4 4 5 7 12 11 9 8 9 12 13 14 14 13 13 13 13 13 13 14 15 16 16 16 17 16 17 17 16 16 17 16 17 18
4 5 6 5 3 3 8 7 6 6 2 3 5 5 3 1 5 7 12 13 11 9 8 10 13 14 14 14 14 13 13 13 13 14 14 15 15 16 16 16 16 16 16 16 16 16 16 16 18
5 5 6 3 0 1 3 7 7 6 5 3 5 5 1 3 5 11 13 12 11 8 8 10 13 13 14 14 14 13 13 13 13 14 14 14 15 15 15 15 15 15 15 15 15 15 15 16 18
5 5 5 1 1 2 3 5 6 5 4 3 6 6 2 1 7 11 11 11 10 10 8 9 12 13 12 13 13 13 13 13 13 14 14 14 14 14 14 15 15 15 15 15 15 15 15 16 17
5 5 4 3 3 2 4 6 8 7 5 6 8 7 2 3 5 8 10 10 9 9 9 7 8 10 11 12 12 12 12 12 13 13 13 13 13 14 13 14 14 14 15 15 15 15 16 17 18
5 5 3 2 4 4 3 4 4 7 5 4 7 10 7 8 6 7 9 10 9 8 9 8 7 7 7 8 11 12 12 11 11 12 11 11 11 12 11 11 13 14 14 15 15 15 16 17 17
4 6 1 2 4 5 4 3 2 3 5 3 2 6 7 10 8 8 7 6 8 9 8 9 8 7 7 7 9 10 11 11 11 10 12 10 6 6 7 9 12 14 14 14 14 15 15 15 15
5 4 4 2 3 7 5 5 7 4 3 2 2 2 5 10 10 11 9 10 11 11 10 9 9 9 8 7 6 5 5 6 6 6 7 5 5 4 6 9 11 12 12 13 13 14 13 10 6
4 6 4 1 1 5 5 5 5 9 4 7 8 8 10 9 10 11 10 10 11 11 10 10 10 10 9 6 6 4 3 4 5 6 6 5 4 4 4 3 5 6 7 5 7 6 4 4 4
3 2 3 3 1 3 5 5 4 6 8 7 10 15 14 14 16 16 14 11 9 10 11 11 11 10 10 8 7 7 5 5 5 6 7 6 4 4 4 3 3 3 3 4 4 3 5 5 5
3 3 2 2 3 2 3 2 4 6 5 1 8 13 15 16 15 13 10 9 9 11 11 11 11 12 10 9 7 8 8 7 7 7 7 8 6 6 5 4 4 4 3 4 4 4 5 5 5
3 3 3 2 2 1 1 1 1 7 3 5 10 14 15 16 15 10 10 11 12 13 13 11 12 12 11 10 9 8 8 8 8 8 9 10 7 7 7 6 5 4 4 4 4 5 5 4 4
4 4 1 1 2 1 2 4 6 5 3 7 9 11 12 13 11 13 15 16 16 13 12 13 12 12 13 12 11 8 8 9 9 9 10 11 10 9 8 7 7 6 5 5 4 5 4 4 4
4 3 1 4 3 2 3 6 7 4 5 8 8 8 10 11 12 14 14 14 13 11 12 13 11 12 13 12 11 8 8 9 9 9 9 12 12 12 10 8 8 7 6 6 6 5 5 4 4
3 2 3 3 3 3 4 7 7 3 2 7 8 9 10 10 11 13 13 14 14 14 13 14 14 14 13 11 9 8 8 9 8 8 9 11 13 13 11 9 8 9 7 7 7 6 5 5 5
6 4 3 5 3 4 4 8 10 7 4 7 8 9 10 12 16 14 14 15 14 13 13 14 14 13 11 8 6 6 7 7 7 9 10 12 12 14 12 9 9 10 8 7 7 7 4 5 5
7 5 2 2 1 4 6 9 11 10 7 10 11 11 12 14 13 9 11 12 11 11 12 14 15 13 11 7 8 9 10 7 7 8 10 12 12 13 13 9 10 10 10 11 11 7 7 5 5
2 2 2 1 1 1 5 10 10 9 9 11 11 12 13 12 9 9 9 9 12 14 14 14 15 14 13 12 9 5 5 4 5 5 7 11 12 13 12 12 11 12 10 11 11 9 7 5 8
4 5 4 3 1 2 3 10 7 6 5 7 9 10 10 12 13 10 9 10 11 13 15 14 15 15 13 10 5 3 2 1 4 6 7 8 10 12 12 13 11 12 12 12 14 14 14 9 9
5 4 5 4 2 3 1 6 9 6 8 8 9 9 10 9 9 8 7 8 11 13 12 12 12 11 10 10 8 9 9 10 9 5 5 6 7 9 11 12 13 13 11 12 14 15 12 10 11
5 2 4 2 3 1 1 4 11 5 6 10 11 9 8 6 5 6 6 7 7 8 7 7 7 8 8 9 11 10 10 9 4 3 5 6 6 8 9 10 12 12 12 13 14 15 14 11 10
7 8 8 6 5 3 5 6 10 6 8 8 7 5 4 1 1 1 1 0 1 2 3 5 6 7 7 9 9 11 11 9 7 6 6 6 5 6 9 9 10 11 11 13 14 14 17 15 13
6 7 3 2 2 8 4 5 12 10 9 7 7 5 1 1 1 1 2 2 1 2 2 3 5 5 6 7 9 10 10 10 12 10 8 7 6 7 9 10 10 10 11 11 12 13 14 16 15
7 10 10 8 7 6 3 9 11 9 7 6 4 1 1 0 1 2 1 1 0 1 2 3 4 5 5 6 7 7 8 7 8 9 8 9 8 8 8 10 11 11 11 11 11 11 13 12 15
8 5 7 7 3 2 7 8 11 7 4 3 1 2 2 1 1 2 2 2 1 0 2 4 4 4 5 6 6 6 7 8 8 8 8 8 7 6 8 10 11 12 11 11 11 11 13 12 14
7 10 6 6 6 6 7 5 6 5 6 4 0 1 2 2 2 2 2 2 1 0 1 2 3 4 5 5 6 5 7 8 8 7 9 9 8 7 8 9 10 11 11 11 11 11 11 13 13
7 6 6 6 6 7 5 9 9 9 5 3 1 1 2 2 2 2 2 2 2 1 1 2 3 3 4 6 6 6 7 7 7 8 10 9 7 8 9 10 10 11 12 11 12 12 10 13 13
7 9 10 9 7 6 5 10 6 5 3 3 3 3 3 3 2 3 3 3 3 3 2 3 3 5 6 5 6 7 7 6 7 10 10 8 8 8 9 9 10 11 11 11 12 13 11 12 14
Wind_Direction
336 20 79 59 56 55 111 174 147 129 100 103 99 100 105 107 136 154 142 147 139 145 149 143 131 122 114 107 103 101 100 100 100 99 97 97 96 95 93 92 92 91 91 91 91 90 88 89 90
348 44 55 60 84 92 213 189 126 131 156 138 91 93 87 74 86 112 131 155 143 145 147 143 135 128 120 114 110 107 106 105 104 103 102 100 99 97 97 96 95 93 93 94 93 91 89 90 92
23 60 79 73 106 159 174 194 149 130 136 111 81 81 114 134 132 145 157 147 140 144 144 142 139 133 127 121 117 113 111 110 108 107 105 103 101 99 99 98 97 96 96 96 95 92 90 92 95
67 49 56 72 109 193 169 185 159 127 87 80 100 80 81 152 170 151 143 143 140 143 143 146 142 138 133 128 123 120 118 116 114 111 108 106 103 102 101 100 100 99 99 98 96 92 91 95 98
64 78 64 54 75 70 147 170 158 131 140 118 108 110 84 317 141 133 141 143 141 141 143 150 145 142 139 134 130 127 124 121 119 115 112 110 108 107 106 105 104 103 102 101 97 93 92 96 100
60 69 82 119 151 121 174 184 141 125 154 137 114 119 156 271 136 140 143 143 143 144 144 149 147 145 143 140 136 134 131 128 125 122 119 117 115 113 112 111 110 108 107 105 99 94 94 98 100
106 100 137 163 165 178 193 165 139 141 157 173 135 121 165 233 172 144 141 141 141 144 144 146 149 149 147 144 140 138 135 133 131 129 125 121 120 119 117 116 116 115 113 108 101 96 97 99 99
122 103 99 147 168 199 191 142 140 144 168 162 128 144 184 209 185 139 134 139 143 147 151 152 152 150 149 147 146 143 141 138 134 128 124 121 120 120 119 119 122 121 119 113 106 101 99 99 99
88 80 132 196 179 189 196 128 96 119 120 87 91 169 192 162 150 135 133 139 153 159 162 159 159 157 154 152 154 149 145 141 134 131 130 122 117 116 119 126 127 127 125 121 113 105 100 97 95
86 133 210 221 183 175 183 161 151 114 106 107 52 37 126 144 156 161 164 167 170 174 175 169 168 166 163 162 155 152 148 145 141 142 139 131 127 128 126 128 130 130 129 127 119 110 102 95 87
124 172 207 163 94 150 163 171 155 132 183 199 185 171 154 162 172 180 181 178 179 177 177 177 175 172 170 165 163 162 153 152 152 154 151 140 130 126 121 124 126 128 126 117 113 99 91 94 97
133 159 152 145 81 126 162 163 175 175 210 207 185 164 165 175 184 190 191 187 180 180 185 182 179 177 177 171 173 173 169 169 170 171 162 153 149 149 149 147 147 146 135 128 117 111 107 103 103
136 140 116 120 96 104 130 160 196 227 230 153 142 158 177 185 194 200 197 188 184 189 190 186 182 181 180 177 179 180 181 181 179 177 175 169 166 168 165 163 163 161 150 146 139 130 123 118 116
154 134 139 147 118 106 142 318 278 244 186 145 155 178 191 195 198 196 198 200 200 199 196 189 188 186 182 184 185 185 186 186 182 185 185 179 175 174 174 173 175 175 166 157 148 141 131 124 122
102 98 53 198 169 186 111 289 246 250 162 178 190 197 203 209 201 203 205 205 204 203 198 195 192 187 187 189 189 188 189 187 189 191 189 186 182 180 180 180 183 182 165 151 138 131 124 127 126
77 81 265 272 188 168 145 260 271 287 197 212 215 216 220 224 216 216 213 212 209 203 200 201 195 192 193 192 191 190 190 192 194 193 192 192 188 184 183 185 188 177 166 162 158 154 144 143 141
66 153 223 271 190 166 181 244 274 331 193 230 230 226 228 235 235 228 218 214 209 206 201 200 200 198 197 194 191 191 189 195 196 195 195 195 193 189 188 190 187 175 174 172 171 169 156 158 150
190 198 220 235 212 162 207 252 276 290 271 252 245 239 235 235 236 226 218 215 212 207 203 201 202 202 196 189 187 191 198 200 197 199 199 196 196 193 192 191 184 177 177 178 177 171 159 150 144
159 158 193 241 218 173 231 260 271 279 268 254 248 241 240 241 244 237 223 214 209 206 203 202 200 200 190 187 194 199 208 204 203 205 201 198 197 195 195 191 185 184 187 187 179 164 157 146 142
154 151 160 340 6 194 266 272 266 261 246 237 240 242 241 248 258 247 231 213 206 206 205 204 203 197 196 200 198 196 194 200 208 205 206 203 200 197 197 194 189 190 190 186 181 165 163 164 174
192 185 186 187 352 348 314 303 297 285 261 262 248 243 242 238 243 245 233 219 210 209 207 205 204 200 198 191 166 146 147 175 201 212 213 210 206 201 199 198 193 192 192 193 189 185 177 180 192
197 205 169 156 130 287 15 293 288 288 307 292 275 258 250 249 250 250 241 229 217 216 209 206 201 196 190 179 178 183 198 213 217 210 212 209 209 208 203 200 198 196 198 198 195 194 191 182 190
170 110 122 120 143 307 299 241 280 300 277 269 265 263 261 261 258 260 251 235 227 217 205 201 192 191 184 185 192 197 212 221 209 196 209 212 211 214 210 205 202 202 203 203 198 198 200 199 196
124 73 56 49 68 266 220 200 272 243 227 249 267 279 284 274 324 305 322 46 216 173 175 176 181 191 185 189 195 202 212 210 208 211 214 215 215 217 216 211 210 209 208 207 204 202 206 208 207
112 101 56 341 338 248 244 225 250 247 243 251 275 286 319 87 37 355 20 42 61 117 155 166 179 194 190 194 203 209 213 210 217 217 217 216 218 220 218 215 219 218 215 211 207 207 210 213 213
178 151 163 191 222 266 262 235 252 261 273 264 258 253 82 26 313 313 319 2 8 153 159 171 187 201 198 203 212 214 214 215 225 222 219 221 225 223 212 214 222 222 217 214 211 213 215 216 219
151 182 157 129 129 272 262 273 296 287 264 253 244 69 38 352 328 324 357 22 9 201 192 195 197 209 212 214 216 219 217 219 227 225 223 229 229 219 209 213 219 222 220 217 215 221 217 217 219
152 146 121 144 172 233 269 259 244 253 231 242 304 41 27 24 16 15 14 14 7 332 233 204 208 218 224 220 219 222 224 225 228 227 230 232 230 218 211 215 218 221 222 220 222 229 222 220 222
149 164 159 156 167 174 247 261 224 221 221 204 247 52 68 61 31 8 359 360 2 356 278 242 239 241 241 233 230 233 236 231 230 234 238 235 230 219 217 214 216 219 221 219 224 230 225 226 227
183 177 154 167 205 195 208 261 259 225 194 146 108 85 67 55 32 12 3 354 342 322 299 276 261 253 249 241 239 242 245 240 238 243 244 235 232 224 219 214 216 220 221 219 223 229 228 231 231